This is the latest recevied weather packets stored in our database for station/object DL1DH-17. If no packets are shown the sender has not sent any weather packets the latest 10 day(s).
| Time | Temp. | Humidity | Pressure | Rain* | Wind** | Luminosity | Snow |
|---|---|---|---|---|---|---|---|
| 1778056749 | 15.56° C | 74% | 967.6 hPa | - | - | - | - |
| 1778055909 | 16.11° C | 74% | 967.3 hPa | - | - | - | - |
| 1778055069 | 15.56° C | 77% | 967.1 hPa | - | - | - | - |
| 1778054228 | 15° C | 78% | 967.1 hPa | - | - | - | - |
| 1778053388 | 14.44° C | 81% | 967.1 hPa | - | - | - | - |
| 1778052548 | 13.33° C | 83% | 967.2 hPa | - | - | - | - |
| 1778051708 | 12.78° C | 84% | 967.3 hPa | - | - | - | - |
| 1778050868 | 12.78° C | 84% | 967.2 hPa | - | - | - | - |
| 1778050028 | 13.33° C | 85% | 967.3 hPa | - | - | - | - |
| 1778049188 | 13.33° C | 86% | 967.3 hPa | - | - | - | - |
| 1778048348 | 13.33° C | 88% | 967.4 hPa | - | - | - | - |
| 1778047508 | 11.67° C | 88% | 967.3 hPa | - | - | - | - |
| 1778046668 | 11.67° C | 89% | 967.3 hPa | - | - | - | - |
| 1778045828 | 11.11° C | 89% | 967.5 hPa | - | - | - | - |
| 1778044987 | 11.11° C | 89% | 967.4 hPa | - | - | - | - |
| 1778044147 | 11.11° C | 89% | 967.3 hPa | - | - | - | - |
| 1778043307 | 10.56° C | 89% | 967.4 hPa | - | - | - | - |
| 1778042467 | 11.11° C | 89% | 967.4 hPa | - | - | - | - |
| 1778041627 | 10.56° C | 89% | 967.4 hPa | - | - | - | - |
| 1778040787 | 10.56° C | 89% | 967.3 hPa | - | - | - | - |
| 1778039947 | 10.56° C | 89% | 967.4 hPa | - | - | - | - |
| 1778039107 | 10.56° C | 89% | 967.5 hPa | - | - | - | - |
| 1778038267 | 10.56° C | 89% | 967.5 hPa | - | - | - | - |
| 1778037427 | 10.56° C | 89% | 967.5 hPa | - | - | - | - |
| 1778036586 | 10.56° C | 89% | 967.6 hPa | - | - | - | - |
* Rain since midnight (hover to see other rain measurements)
** Current wind speed in m/s (hover to see current wind gust speed)